Starlink 32524

operational
NORAD ID: 62159 Int'l Des: 2024-224 Owner: SPXS Country: US Constellation: starlink
LEOCIRCULAR

Starlink 32524について

説明を読み込み中...

リアルタイム位置

3D地球を読み込み中...

次回通過

高度履歴

Altitude vs Time

uPlot chart will show altitude changes over time

軌道要素

1 62159U 24224W 25304.64096204 .00038341 00000-0 13952-2 0 9993
2 62159 42.9993 170.3628 0001185 264.0986 95.9731 15.27589226 52545
Epoch: Oct 31, 2025 • Age: 21 hours

現在のステータス

高度 483.1 km
速度 7.63 km/s
衛星直下点 24.55°N, 25.54°W
打ち上げ日 Nov 30, 2024
運用期間 0.9 years
タイプ internet

技術仕様

分類 Payload
質量 730.00 kg
乾燥質量 700.00 kg
総質量 730.00 kg
長さ 0.30 m
直径 4.10 m
スパン 29.00 m
形状 Box + pan
製造者 SPXS
バスタイプ Starlink V2M
フェーズステータス In Orbit
所有者/国 SPXS/US

大規模コンステレーション

Loading constellations...